This demonstration page uses our WeatherBlox Daily Observations layout. Learn more.

Left ArrowRight Arrow

40.97296, -117.73568

Hourly Observations for August 26, 2022

Temp ( °F °C ) Dew Point ( °F °C ) Humidity (%) Winds ( mph kmh ) Pressure ( in mb ) Visibility ( mi km ) Precip ( " mm )
12:56 am 00:56 Clear 63 17.2 22 -5.6 21 21 Calm 29.91 1013 10 16 0.00 0.00
1:56 am 01:56 Clear 58 14.4 21 -6.1 24 24 ESE 3 6 29.91 1013 10 16 0.00 0.00
2:56 am 02:56 Clear 59 15 22 -5.6 24 24 Calm 29.91 1013 10 16 0.00 0.00
3:56 am 03:56 Clear 57 13.9 25 -3.9 29 29 S 7 11 29.93 1014 10 16 0.00 0.00
4:56 am 04:56 Clear 53 11.7 25 -3.9 33 33 Calm 29.94 1014 10 16 0.00 0.00
5:56 am 05:56 Clear 50 10 25 -3.9 37 37 SE 8 13 29.95 1014 10 16 0.00 0.00
6:56 am 06:56 Sunny 56 13.3 28 -2.2 34 34 SSE 5 7 29.96 1015 10 16 0.00 0.00
7:56 am 07:56 Sunny 67 19.4 27 -2.8 22 22 SSW 5 7 29.98 1015 10 16 0.00 0.00
8:56 am 08:56 Sunny 77 25 28 -2.2 16 16 W 3 6 29.96 1015 10 16 0.00 0.00
9:56 am 09:56 Sunny 85 29.4 30 -1.1 14 14 Calm 29.96 1014 10 16 0.00 0.00
10:56 am 10:56 Sunny 89 31.7 30 -1.1 12 12 VRB 7 11 29.95 1014 10 16 0.00 0.00
11:56 am 11:56 Sunny 92 33.3 22 -5.6 8 8 VRB 7 11 29.93 1014 10 16 0.00 0.00
12:56 pm 12:56 Sunny 94 34.4 19 -7.2 7 7 WSW 8 13 29.90 1012 10 16 0.00 0.00
1:56 pm 13:56 Sunny 95 35 19 -7.2 6 6 W 13 20 29.88 1012 10 16 0.00 0.00
2:56 pm 14:56 Sunny 95 35 22 -5.6 7 7 SW 7 11 29.85 1011 10 16 0.00 0.00
3:56 pm 15:56 Sunny 95 35 24 -4.4 8 8 WSW 15 24 29.83 1010 10 16 0.00 0.00
4:56 pm 16:56 Sunny 95 35 20 -6.7 7 7 WSW 17 28 29.82 1010 10 16 0.00 0.00
5:56 pm 17:56 Sunny 93 33.9 18 -7.8 6 6 W 13 20 29.82 1010 10 16 0.00 0.00
6:56 pm 18:56 Sunny 89 31.7 19 -7.2 8 8 W 10 17 29.81 1010 10 16 0.00 0.00
7:56 pm 19:56 Clear 75 23.9 19 -7.2 12 12 SW 6 9 29.82 1010 10 16 0.00 0.00
8:56 pm 20:56 Clear 73 22.8 17 -8.3 12 12 WSW 9 15 29.81 1010 10 16 0.00 0.00
9:56 pm 21:56 Clear 72 22.2 18 -7.8 13 13 W 8 13 29.81 1009 10 16 0.00 0.00
10:56 pm 22:56 Clear 74 23.3 18 -7.8 12 12 WSW 13 20 29.79 1009 10 16 0.00 0.00
11:56 pm 23:56 Clear 67 19.4 21 -6.1 17 17 Calm 29.80 1009 10 16 0.00 0.00

Powered by AerisWeather